Regional Weather Roundup
Issued by NWS

Home | Current Version | Previous Version | Graphics & Text | Print | Product List | Glossary Off
Versions: 1 2 3 4 5 6 7 8 9 10 11 12 13 14 15 16 17 18 19 20 21 22 23 24 25 26 27 28 29 30 31 32 33 34 35 36 37 38 39 40 41 42 43 44 45 46 47 48 49 50

000
ASUS43 KDMX 070701
RWRIA

WEATHER ROUNDUP FOR IOWA
NATIONAL WEATHER SERVICE DES MOINES IA
100 AM CST WED DEC 07 2016

NOTE: "FAIR" INDICATES FEW OR NO CLOUDS BELOW 12,000 FEET WITH NO
SIGNIFICANT WEATHER AND/OR OBSTRUCTIONS TO VISIBILITY.

* - THESE STATIONS ARE NOT NWS STATIONS...THUS NOT UNDER NWS
QUALITY CONTROL.  THEY ALSO DO NOT REPORT WEATHER SUCH
AS PRECIPITATION OR FOG.

IAZ001>003-012>014-020>022-031>034-043>046-070800-
   NORTHWEST IOWA

CITY           SKY/WX    TMP DP  RH WIND       PRES   REMARKS
SIOUX CITY     CLEAR     17   7  64 NW17      30.16R WCI   1
STORM LAKE *   PTCLDY    14   9  79 W26       30.05S WCI  -6
$$

IAZ055>058-069>071-079>083-090>094-070800-
   SOUTHWEST IOWA

CITY           SKY/WX    TMP DP  RH WIND       PRES   REMARKS
$$

IAZ047>049-059>061-072>074-084-070800-
   CENTRAL IOWA

CITY           SKY/WX    TMP DP  RH WIND       PRES   REMARKS
AMES           CLEAR     19  12  74 W13G23    30.09R WCI   6
GRINNELL*      PTCLDY    22  14  72 W13       30.08R WCI  10
PERRY *          N/A     20  14  78 W14G23    30.11R WCI   7
$$

IAZ004>006-015-016-023>025-035-036-070800-
   NORTH CENTRAL IOWA

CITY           SKY/WX    TMP DP  RH WIND       PRES   REMARKS
ESTHERVILLE    CLEAR     12   7  80 W22G29    30.01R WCI  -7
IOWA FALLS *     N/A     19  13  78 W23G33    30.04R WCI   2
$$

IAZ007>011-017>019-026>030-037>042-050>054-066-070800-
   NORTHEAST IOWA

CITY           SKY/WX    TMP DP  RH WIND       PRES   REMARKS
CEDAR RAPIDS   PTCLDY    21  16  81 W16G22    30.04R WCI   7
CHARLES CITY * CLOUDY    18  10  73 W16G22    29.99R WCI   3
DUBUQUE        FLURRIES  20  14  77 W17       29.99R WCI   5
$$

IAZ064-065-067-068-078-070800-
   EAST CENTRAL IOWA

CITY           SKY/WX    TMP DP  RH WIND       PRES   REMARKS
DAVENPORT      PTCLDY    26  18  71 W16       30.05R WCI  14
IOWA CITY      CLOUDY    25  16  68 W14       30.09R WCI  13
QUAD CITIES    PTCLDY    28  17  63 W16       30.06R WCI  16
$$

IAZ062-063-075>077-085>089-095>099-070800-
   SOUTHEAST IOWA

CITY           SKY/WX    TMP DP  RH WIND       PRES   REMARKS
BURLINGTON     PTCLDY    28  17  63 W10       30.10R WCI  19
$$

ABBREVIATIONS USED IN REMARKS
   TC - TEMPERATURES IN CELSIUS
  WCI - WIND CHILL INDEX
   HX - HEAT INDEX
  VSB - VISIBILITY
$$





USA.gov is the U.S. government's official web portal to all federal, state and local government web resources and services.